Galena, AK

1:16 AM AKDT on June 24, 2017 (GMT -0800)
Pitka

Weather History for PAGA - October, 2013

Change the Weather History Date:

Wednesday, October 16, 2013

  Actual Average Record
Temperature  
Mean Temperature 47 °F -  
Max Temperature 52 °F 30 °F 52 °F (2013)
Min Temperature 42 °F 20 °F -2 °F (1997)
Degree Days  
Heating Degree Days 18    
Moisture  
Dew Point 43 °F    
Average Humidity 90    
Maximum Humidity 100    
Minimum Humidity 66    
Precipitation  
Precipitation 0.00 in - - ()
Sea Level Pressure  
Sea Level Pressure 29.85 in    
Wind  
Wind Speed 10 mph (SE)    
Max Wind Speed 16 mph    
Max Gust Speed 20 mph    
Visibility 10 miles    
Events Rain    
Averages and records for this station are not official NWS values.
T = Trace of Precipitation, MM = Missing Value Source: NWS Daily Summary

Daily Weather History Graph

Daily Weather History Graph

Search for Another Location

Airport or City:

Trip Planner

Search our weather history database for the weather conditions in past years. The results will help you decide how hot, cold, wet, or windy it might be!

Date:

Astronomy

Oct. 16, 2013 Rise Set
Actual Time 9:24 AM AKDT 7:00 PM AKDT
Civil Twilight 8:34 AM AKDT 7:50 PM AKDT
Nautical Twilight 7:37 AM AKDT 8:46 PM AKDT
Astronomical Twilight 6:40 AM AKDT 9:43 PM AKDT
Moon 6:16 PM AKDT (10/16) 6:23 AM AKDT (10/16)
Length of Visible Light 11h 16m
Length of Day
9h 36m
Waxing Gibbous, 95% of the Moon is Illuminated
Oct 16
Waxing Gibbous
Oct 18
Full
Oct 26
Last Quarter
Nov 3
New
Nov 9
First Quarter

Hourly Weather History & Observations

Time (AKDT) Temp. Windchill Dew Point Humidity Pressure Visibility Wind Dir Wind Speed Gust Speed Precip Events Conditions
12:03 AM 44.6 °F 37.8 °F 42.8 °F 93% 29.75 in 10.0 mi SW 15.0 mph - N/A   Mostly Cloudy
12:37 AM 42.8 °F 38.0 °F 42.8 °F 100% 29.79 in 8.0 mi SW 8.1 mph - N/A   Overcast
12:54 AM 42.8 °F 38.6 °F 42.8 °F 100% 29.81 in 8.0 mi WSW 6.9 mph - N/A Rain Light Rain
12:58 AM 43.0 °F 38.8 °F 42.1 °F 97% 29.83 in 8.0 mi WSW 6.9 mph - N/A Rain Light Rain
1:07 AM 42.8 °F 38.0 °F 42.8 °F 100% 29.82 in 10.0 mi SW 8.1 mph - N/A   Overcast
1:58 AM 44.1 °F 37.7 °F 41.0 °F 89% 29.85 in 10.0 mi WSW 12.7 mph - N/A   Mostly Cloudy
2:58 AM 43.0 °F 41.3 °F 41.0 °F 93% 29.88 in 10.0 mi South 3.5 mph - N/A   Clear
3:58 AM 42.1 °F 39.2 °F 39.9 °F 92% 29.89 in 10.0 mi East 4.6 mph - N/A   Partly Cloudy
4:58 AM 42.1 °F 39.2 °F 39.9 °F 92% 29.90 in 10.0 mi ESE 4.6 mph - N/A   Mostly Cloudy
5:58 AM 43.0 °F 40.3 °F 41.0 °F 93% 29.90 in 10.0 mi East 4.6 mph - N/A   Overcast
6:34 AM 44.6 °F 39.7 °F 42.8 °F 93% 29.87 in 10.0 mi ESE 9.2 mph - N/A   Overcast
6:58 AM 44.1 °F 39.0 °F 42.1 °F 93% 29.88 in 10.0 mi ESE 9.2 mph - N/A Rain Light Rain
7:09 AM 44.6 °F 39.2 °F 42.8 °F 93% 29.86 in 10.0 mi ESE 10.4 mph - N/A Rain Light Rain
7:58 AM 44.1 °F 38.6 °F 42.1 °F 93% 29.87 in 10.0 mi East 10.4 mph - N/A   Overcast
8:58 AM 45.0 °F 39.3 °F 43.0 °F 93% 29.87 in 10.0 mi ESE 11.5 mph - N/A Rain Light Rain
9:58 AM 46.0 °F 40.2 °F 44.1 °F 93% 29.86 in 10.0 mi ESE 12.7 mph - N/A Rain Light Rain
10:25 AM 44.6 °F 37.4 °F 44.6 °F 100% 29.83 in 10.0 mi East 16.1 mph - N/A Rain Light Rain
10:58 AM 45.0 °F 38.5 °F 44.1 °F 97% 29.85 in 10.0 mi East 13.8 mph - N/A Rain Light Rain
11:58 AM 46.9 °F - 45.0 °F 93% 29.85 in 10.0 mi ESE 11.5 mph - N/A   Overcast
12:03 PM 46.4 °F 40.1 °F 44.6 °F 93% 29.83 in 10.0 mi ESE 15.0 mph - N/A   Overcast
12:09 PM 46.4 °F 41.1 °F 44.6 °F 93% 29.83 in 10.0 mi ESE 11.5 mph - N/A   Overcast
12:13 PM 46.4 °F 41.5 °F 44.6 °F 93% 29.83 in 10.0 mi ESE 10.4 mph - N/A   Overcast
12:58 PM 48.0 °F - 46.0 °F 93% 29.86 in 8.0 mi East 6.9 mph - N/A Rain Light Rain
1:58 PM 50.0 °F - 46.9 °F 89% 29.86 in 10.0 mi East 5.8 mph - N/A   Mostly Cloudy
2:52 PM 51.8 °F - 46.4 °F 82% 29.84 in 10.0 mi South 8.1 mph - N/A   Overcast
2:58 PM 52.0 °F - 45.0 °F 77% 29.86 in 10.0 mi South 12.7 mph 16.1 mph N/A   Overcast
3:58 PM 52.0 °F - 43.0 °F 71% 29.87 in 10.0 mi South 9.2 mph 19.6 mph N/A   Overcast
4:58 PM 51.1 °F - 41.0 °F 68% 29.88 in 10.0 mi South 13.8 mph - N/A   Overcast
5:58 PM 50.0 °F - 39.0 °F 66% 29.89 in 10.0 mi SSW 12.7 mph 18.4 mph N/A   Overcast
6:58 PM 48.0 °F - 39.9 °F 74% 29.88 in 10.0 mi South 10.4 mph - N/A   Overcast
7:58 PM 46.9 °F - 41.0 °F 80% 29.89 in 10.0 mi SE 10.4 mph - N/A Rain Light Rain
8:58 PM 46.0 °F 40.2 °F 42.1 °F 86% 29.87 in 10.0 mi ESE 12.7 mph - N/A   Overcast
9:24 PM 46.4 °F 42.4 °F 42.8 °F 87% 29.85 in 10.0 mi ESE 8.1 mph - N/A   Overcast
9:58 PM 45.0 °F 39.3 °F 43.0 °F 93% 29.86 in 10.0 mi ESE 11.5 mph - N/A   Overcast
10:58 PM 46.0 °F 41.4 °F 44.1 °F 93% 29.85 in 10.0 mi SE 9.2 mph - N/A Rain Light Rain
11:58 PM 46.0 °F 41.0 °F 44.1 °F 93% 29.84 in 10.0 mi SE 10.4 mph - N/A Rain Light Rain